Location: Peterborough
(44.3091°N, 78.3197°W)
Time: 21:59:51
(UTC-04:00)

Envisat - Pass Details

Date: 25 April 2026
Orbit: 761 x 762 km, 98.4° (Epoch: 15 May)

Event Time Altitude Azimuth Distance (km) Brightness Sun altitude
Rises 02:39:24 0° 29° (NNE) 3,232 7.5 -29.1°
Reaches altitude 10° 02:42:28 10° 48° (NE) 2,300 6.3 -28.8°
Maximum altitude 02:45:52 18° 91° (E) 1,811 5.1 -28.6°
Enters shadow 02:47:25 16° 113° (ESE) 1,921 5.1 -28.5°
